#timestamp,LO_Frequency,Hit,StdDev 
1688904015.7,286046999.8,N
1688904035.5,286047000.4,N
1688904055.4,286047001.0,N
1688904075.2,286047000.0,N
1688904095.1,286047000.0,N
1688904096.0,286047000.0,N
1688904115.8,286046999.9,N
1688904135.6,286047000.7,N
1688904155.5,286046998.5,N
1688904175.3,286046998.1,N
1688904195.1,286046998.1,N
1688904215.9,286046998.6,N
1688904235.7,286046998.2,N
1688904255.6,286046998.6,N
1688904275.4,286046999.0,N
1688904295.2,286046999.3,N
1688904315.1,286046997.2,N
1688904316.0,286046997.2,N
1688904335.8,286046999.0,N
1688904355.7,286046997.8,N
1688904375.5,286046998.0,N
1688904395.3,286046998.0,N
1688904415.2,286046997.6,N
1688904435.9,286046996.2,Y
1688904455.7,286046995.5,P
1688904475.6,286046997.1,N
1688904495.4,286046999.4,N
1688904515.3,286046996.8,N
1688904535.1,286046996.5,N
1688904536.0,286046996.5,N
1688904555.8,286046999.5,N
1688904575.7,286046997.9,N
1688904595.5,286046995.0,Y
1688904615.4,286046999.3,P
1688904635.2,286046998.9,N
1688904655.0,286046997.0,P
1688904655.9,286046997.0,Y
1688904675.8,286046998.5,P
1688904695.6,286046997.0,P
1688904715.5,286046996.9,P
1688904735.3,286046997.7,Y
1688904755.1,286046998.1,P
1688904775.9,286046998.2,P
1688904795.7,286046998.8,P
1688904815.5,286046998.9,N
1688904835.4,286046999.0,N
1688904855.2,286046997.0,Y
1688904875.1,286046998.6,P
1688904876.0,286046998.6,P
1688904895.8,286046999.3,P
1688904915.6,286046998.1,Y
1688904935.5,286047000.1,P
1688904955.3,286047000.0,N
1688904975.1,286046999.7,N
1688904995.9,286047001.6,N
1688905015.7,286047001.5,N
1688905035.6,286047001.3,N
1688905055.4,286047001.5,N
1688905075.2,286047001.7,N
1688905095.1,286047001.9,N
1688905096.0,286047001.9,N
1688905115.8,286047001.5,N
1688905135.7,286047003.9,Y
1688905155.5,286047004.1,P
1688905175.3,286047001.7,N
1688905195.2,286047002.5,N
1688905215.9,286047002.5,N
1688905235.7,286047001.6,N
1688905255.6,286047001.7,N
1688905275.4,286047001.3,N
1688905295.2,286047001.8,N
1688905315.1,286047004.0,Y
1688905316.0,286047004.0,P
1688905335.8,286046999.7,N
1688905355.7,286047002.7,N
1688905375.5,286047002.3,N
1688905395.3,286047002.0,N
1688905415.2,286047002.0,N
1688905435.0,286047001.3,N
1688905435.9,286047001.3,N
1688905455.8,286047004.3,Y
1688905475.6,286047000.2,P
1688905495.4,286047000.6,N
1688905515.3,286047000.5,N
1688905535.1,286047001.0,N
1688905555.8,286047000.3,N
1688905575.7,286047000.3,N
1688905595.5,286047000.5,N
1688905615.4,286047000.2,N
1688905635.2,286047002.8,Y
1688905655.0,286047002.7,P
1688905655.9,286047002.7,N
1688905675.8,286047002.3,N
1688905695.6,286047002.4,N
1688905715.4,286047001.7,N
1688905735.3,286047001.5,N
1688905755.1,286047002.3,Y
1688905775.9,286047000.5,P
1688905795.7,286047000.6,N
1688905815.5,286047000.3,N
1688905835.4,286046999.8,N
1688905855.2,286047001.0,N
1688905875.0,286047001.1,N
1688905876.0,286047001.1,N
1688905895.8,286047000.4,N
1688905915.6,286047000.3,N
1688905935.5,286047000.4,N
1688905955.3,286047000.4,N
1688905975.1,286046999.7,N
1688905995.9,286047002.7,Y
1688906015.7,286047000.6,P
1688906035.6,286047000.3,P
1688906055.4,286047000.3,N
1688906075.2,286047000.6,Y
1688906095.1,286046999.9,P
1688906096.0,286046999.9,N
1688906115.8,286047002.7,P
1688906135.6,286047002.7,N
1688906155.5,286047000.1,N
1688906175.3,286047000.1,N
1688906195.2,286047000.6,N
1688906215.9,286047001.1,N
1688906235.7,286046998.1,N
1688906255.6,286046998.2,N
1688906275.4,286047000.0,N
1688906295.2,286047000.4,N
1688906315.1,286047000.7,N
1688906316.0,286047000.7,N
1688906335.8,286047000.2,N
1688906355.7,286047000.0,N
1688906375.5,286047000.3,N
1688906395.3,286047000.7,N
1688906415.2,286047000.8,N
1688906435.0,286047000.0,N
1688906435.9,286047000.0,N
1688906455.8,286047001.2,N
1688906475.6,286047001.1,N
1688906495.4,286047001.2,N
1688906515.3,286047000.4,N
1688906535.1,286047000.6,N
1688906555.8,286047001.0,N
1688906575.7,286046998.2,N
1688906595.5,286047000.9,N
1688906615.4,286047001.0,N
1688906635.2,286046998.5,N
1688906655.0,286047000.8,N
1688906655.9,286047000.8,N
1688906675.8,286047000.7,N
1688906695.6,286046998.9,N
1688906715.4,286046998.7,N
1688906735.3,286046998.6,N
1688906755.1,286047000.7,N
1688906775.9,286046999.0,N
1688906795.7,286046998.4,N
1688906815.5,286046998.9,N
1688906835.4,286046998.3,N
1688906855.2,286046998.1,N
1688906875.0,286047000.8,N
1688906875.9,286047000.8,N
1688906895.8,286047001.0,N
1688906915.6,286047000.9,N
1688906935.5,286047000.0,N
1688906955.3,286047000.4,N
1688906975.1,286047000.9,N
1688906995.9,286047000.3,N
1688907015.7,286047001.1,N
1688907035.5,286047000.7,N
1688907055.4,286047001.1,N
1688907075.2,286046998.3,N
1688907095.1,286046998.3,N
1688907096.0,286046998.3,N
1688907115.8,286047001.0,N
1688907135.6,286047001.2,N
1688907155.5,286047000.5,N
1688907175.3,286047000.3,N
1688907195.1,286047000.7,N
1688907215.9,286047001.1,N
1688907235.7,286046998.4,N
1688907255.6,286046999.0,N
1688907275.4,286046998.4,N
1688907295.2,286047000.9,N
1688907315.1,286046998.2,N
1688907316.0,286046998.2,N
1688907335.8,286046998.8,N
1688907355.6,286046998.7,N
1688907375.5,286046999.1,N
1688907395.3,286046998.9,N
1688907415.2,286047001.2,N
1688907435.9,286046998.5,N
1688907455.7,286047000.7,N
1688907475.6,286047000.6,N
1688907495.4,286047000.3,N
1688907515.2,286047000.3,N
1688907535.1,286047000.4,N
1688907536.0,286047000.4,N
1688907555.8,286046999.9,N
1688907575.7,286047000.4,N
1688907595.5,286047000.8,N
